Dodge City, KS

7:21 PM CDT on September 21, 2019 (GMT -0500)
Dodge City Regional

Weather History for KDDC - August, 2019

Change the Weather History Date:

Monday, August 19, 2019

  Actual Average Record
Temperature  
Mean Temperature 84 °F -  
Max Temperature 102 °F 90 °F 106 °F (2011)
Min Temperature 66 °F 65 °F 50 °F (1950)
Cooling Degree Days 19    
Growing Degree Days 34 (Base 50)    
Moisture  
Dew Point 66 °F    
Average Humidity 68    
Maximum Humidity 100    
Minimum Humidity 20    
Precipitation  
Precipitation 0.00 in - - ()
Sea Level Pressure  
Sea Level Pressure 29.88 in    
Wind  
Wind Speed 9 mph (SSE)    
Max Wind Speed 24 mph    
Max Gust Speed 32 mph    
Visibility 5 miles    
Events Fog    
Averages and records for this station are not official NWS values.
T = Trace of Precipitation, MM = Missing Value Source: NWS Daily Summary

Daily Weather History Graph

Daily Weather History Graph

Search for Another Location

Airport or City:

Astronomy

Aug. 19, 2019 Rise Set
Actual Time 6:58 AM CDT 8:27 PM CDT
Civil Twilight 6:31 AM CDT 8:55 PM CDT
Nautical Twilight 5:57 AM CDT 9:28 PM CDT
Astronomical Twilight 5:22 AM CDT 10:03 PM CDT
Moon 10:53 PM CDT (8/19) 10:38 AM CDT (8/19)
Length of Visible Light 14h 24m
Length of Day
13h 28m
Waning Gibbous, 85% of the Moon is Illuminated
Aug 19
Waning Gibbous
Aug 23
Last Quarter
Aug 30
New
Sep 5
First Quarter
Sep 13
Full

Hourly Weather History & Observations

Time (CDT) Temp. Heat Index Dew Point Humidity Pressure Visibility Wind Dir Wind Speed Gust Speed Precip Events Conditions
12:52 AM 73.0 °F - 68.0 °F 84% 29.85 in 8.0 mi SSE 10.4 mph - N/A   Clear
1:52 AM 73.0 °F - 69.1 °F 87% 29.84 in 7.0 mi SE 11.5 mph - N/A   Clear
2:52 AM 73.0 °F - 70.0 °F 90% 29.83 in 6.0 mi SE 10.4 mph - N/A   Clear
3:52 AM 71.1 °F - 70.0 °F 96% 29.83 in 5.0 mi SE 5.8 mph - N/A   Clear
4:52 AM 69.1 °F - 68.0 °F 96% 29.84 in 4.0 mi ESE 3.5 mph - N/A   Clear
5:11 AM 68.0 °F - 68.0 °F 100% 29.95 in 1.5 mi East 4.6 mph - N/A   Clear
5:14 AM 68.0 °F - 66.9 °F 96% 29.95 in 0.8 mi East 4.6 mph - N/A   Clear
5:52 AM 66.9 °F - 66.9 °F 100% 29.86 in 0.5 mi SE 5.8 mph - N/A Fog Fog
5:59 AM 68.0 °F - 66.9 °F 96% 29.95 in 1.5 mi SSE 5.8 mph - N/A   Clear
6:11 AM 68.0 °F - 66.9 °F 96% 29.96 in 3.0 mi SSE 5.8 mph - N/A   Clear
6:52 AM 69.1 °F - 68.0 °F 96% 29.87 in 2.5 mi South 5.8 mph - N/A   Clear
7:02 AM 69.1 °F - 68.0 °F 96% 29.97 in 1.5 mi South 3.5 mph - N/A   Clear
7:19 AM 68.0 °F - 66.9 °F 96% 29.97 in 0.8 mi Calm Calm - N/A   Clear
7:23 AM 66.9 °F - 66.0 °F 97% 29.97 in 0.2 mi Calm Calm - N/A Fog Fog
7:52 AM 70.0 °F - 69.1 °F 97% 29.87 in 1.0 mi SE 3.5 mph - N/A   Clear
8:01 AM 71.1 °F - 70.0 °F 96% 29.97 in 1.8 mi Calm Calm - N/A   Clear
8:09 AM 72.0 °F - 71.1 °F 97% 29.97 in 2.0 mi SE 3.5 mph - N/A   Clear
8:31 AM 73.9 °F - 72.0 °F 93% 29.98 in 3.0 mi SE 4.6 mph - N/A   Clear
8:52 AM 75.9 °F - 72.0 °F 87% 29.89 in 4.0 mi SE 5.8 mph - N/A   Clear
9:52 AM 82.9 °F 85.8 °F 68.0 °F 60% 29.90 in 7.0 mi SSE 6.9 mph - N/A   Clear
10:52 AM 88.0 °F 90.3 °F 66.0 °F 48% 29.91 in 8.0 mi South 11.5 mph 16.1 mph N/A   Clear
11:52 AM 91.0 °F 93.8 °F 66.0 °F 44% 29.90 in 8.0 mi SSE 13.8 mph - N/A   Clear
12:52 PM 93.9 °F 97.5 °F 66.9 °F 41% 29.89 in 8.0 mi SSE 9.2 mph 19.6 mph N/A   Clear
1:52 PM 96.1 °F 98.8 °F 64.9 °F 36% 29.87 in 8.0 mi SSE 12.7 mph 21.9 mph N/A   Clear
2:52 PM 99.0 °F 102.9 °F 66.0 °F 34% 29.86 in 9.0 mi South 13.8 mph - N/A   Clear
3:52 PM 100.9 °F 104.6 °F 64.9 °F 31% 29.84 in 8.0 mi SSE 19.6 mph 28.8 mph N/A   Clear
4:52 PM 102.0 °F 105.9 °F 64.9 °F 30% 29.80 in 8.0 mi SSE 18.4 mph 26.5 mph N/A   Clear
5:52 PM 100.9 °F 99.6 °F 55.9 °F 22% 29.82 in 8.0 mi South 24.2 mph 32.2 mph N/A   Clear
6:52 PM 93.9 °F 92.9 °F 57.9 °F 30% 29.82 in 9.0 mi SSE 17.3 mph - N/A   Clear
7:52 PM 91.9 °F 91.2 °F 59.0 °F 33% 29.83 in 8.0 mi SSE 17.3 mph - N/A   Clear
8:52 PM 88.0 °F 87.6 °F 60.1 °F 39% 29.84 in 7.0 mi South 12.7 mph - N/A   Clear
9:52 PM 84.0 °F 83.5 °F 57.9 °F 41% 29.86 in 8.0 mi South 6.9 mph - N/A   Clear
10:52 PM 81.0 °F 81.6 °F 60.1 °F 49% 29.86 in 9.0 mi SSE 9.2 mph - N/A   Clear
11:52 PM 82.9 °F 84.4 °F 64.0 °F 53% 29.85 in 9.0 mi SSE 15.0 mph - N/A   Clear